Weather History for KPOV - May, 2013

Change the Weather History Date:

Tuesday, May 28, 2013

  Actual Average (KCAK) Record (KCAK)
Temperature  
Mean Temperature 65 °F 62 °F  
Max Temperature 79 °F 73 °F 93 °F (1911)
Min Temperature 51 °F 52 °F 34 °F (1907)
Degree Days  
Heating Degree Days 0 5  
Month to date heating degree days 214  
Since 1 July heating degree days 6090  
Cooling Degree Days 0 2  
Month to date cooling degree days 29  
Year to date cooling degree days 35  
Growing Degree Days 15 (Base 50)    
Moisture  
Dew Point 59 °F    
Average Humidity 81    
Maximum Humidity 100    
Minimum Humidity 53    
Precipitation  
Precipitation 0.39 in 0.14 in - ()
Month to date precipitation 3.85  
Year to date precipitation 15.30  
Snow  
Snow 0.00 in 0.00 in - ()
Month to date snowfall 0.1  
Since 1 July snowfall 47.5  
Snow Depth -    
Sea Level Pressure  
Sea Level Pressure 30.00 in    
Wind  
Wind Speed 6 mph (South)    
Max Wind Speed 10 mph    
Max Gust Speed 20 mph    
Visibility 9 miles    
Events Rain    
T = Trace of Precipitation, MM = Missing Value Source: NWS Daily Summary

Daily Weather History Graph

Daily Weather History Graph

Search for Another Location

Airport or City:

Trip Planner

Search our weather history database for the weather conditions in past years. The results will help you decide how hot, cold, wet, or windy it might be!

Date:

Astronomy

May. 28, 2013 Rise Set
Actual Time 5:56 AM EDT 8:48 PM EDT
Civil Twilight 5:23 AM EDT 9:21 PM EDT
Nautical Twilight 4:42 AM EDT 10:02 PM EDT
Astronomical Twilight 3:54 AM EDT 10:50 PM EDT
Moon No Moon Rise 9:43 AM EDT (5/28)
Length of Visible Light 15h 57m
Length of Day
14h 52m
Waning Gibbous, 83% of the Moon is Illuminated
May 28
Waning Gibbous
May 31
Last Quarter
Jun 8
New
Jun 16
First Quarter
Jun 23
Full

Hourly Weather History & Observations

Time (EDT) Temp. Dew Point Humidity Pressure Visibility Wind Dir Wind Speed Gust Speed Precip Events Conditions
12:14 AM 52.0 °F 51.4 °F 98% 30.08 in 10.0 mi East 9.2 mph - 0.01 in Rain Light Rain
12:33 AM 51.8 °F 51.4 °F 99% 30.08 in 10.0 mi East 8.1 mph - 0.01 in Rain Rain
12:54 AM 51.8 °F 52.0 °F 100% 30.09 in 5.0 mi East 5.8 mph - 0.06 in Rain Rain
1:14 AM 51.4 °F 51.8 °F 100% 30.09 in 7.0 mi East 5.8 mph - 0.03 in Rain Rain
1:33 AM 51.3 °F 51.4 °F 100% 30.06 in 7.0 mi East 10.4 mph - 0.07 in Rain Light Rain
1:54 AM 51.3 °F 51.4 °F 100% 30.05 in 10.0 mi East 8.1 mph - 0.08 in Rain Light Rain
2:14 AM 51.4 °F 51.6 °F 100% 30.05 in 10.0 mi East 10.4 mph - 0.01 in Rain Light Rain
2:33 AM 51.4 °F 51.6 °F 100% 30.03 in 10.0 mi ESE 9.2 mph - 0.02 in Rain Light Rain
2:54 AM 51.4 °F 51.8 °F 100% 30.03 in 10.0 mi East 10.4 mph - 0.03 in Rain Light Rain
3:14 AM 51.3 °F 51.4 °F 100% 30.02 in 10.0 mi East 9.2 mph - N/A Rain Light Rain
3:33 AM 51.4 °F 51.6 °F 100% 30.01 in 10.0 mi East 9.2 mph - 0.01 in Rain Light Rain
3:54 AM 51.4 °F 51.8 °F 100% 30.00 in 7.0 mi East 8.1 mph - 0.01 in Rain Light Rain
4:14 AM 51.8 °F 52.0 °F 100% 30.02 in 4.0 mi ESE 4.6 mph - 0.07 in Rain Heavy Rain
4:33 AM 52.0 °F 52.2 °F 100% 30.00 in 4.0 mi ESE 8.1 mph - 0.15 in Rain Rain
4:54 AM - - N/A% 30.00 in 5.0 mi ESE 5.8 mph - 0.17 in Rain Rain
5:14 AM 52.7 °F 52.9 °F 100% 30.00 in 7.0 mi SE 5.8 mph - 0.02 in Rain Light Rain
5:33 AM 53.1 °F 53.2 °F 100% 30.00 in 7.0 mi SE 3.5 mph - 0.02 in   Overcast
5:54 AM 53.6 °F 53.6 °F 100% 30.01 in 7.0 mi ESE 4.6 mph - 0.02 in   Overcast
6:14 AM 53.6 °F 53.8 °F 100% 30.01 in 7.0 mi SE 3.5 mph - N/A Rain Rain
6:33 AM 54.0 °F 54.1 °F 100% 30.01 in 7.0 mi Calm Calm - N/A   Overcast
6:54 AM 54.5 °F 54.5 °F 100% 30.01 in 7.0 mi Calm Calm - N/A   Light Drizzle
7:14 AM 54.7 °F 54.9 °F 100% 30.02 in 7.0 mi Calm Calm - N/A   Overcast
7:33 AM 55.4 °F 55.6 °F 100% 30.02 in 7.0 mi Calm Calm - N/A   Overcast
7:54 AM 56.8 °F 57.0 °F 100% 30.02 in 10.0 mi Calm Calm - N/A   Mostly Cloudy
8:14 AM 58.3 °F 58.5 °F 100% 30.02 in 10.0 mi WSW 3.5 mph - N/A   Mostly Cloudy
8:33 AM 59.2 °F 59.4 °F 100% 30.03 in 10.0 mi SW 3.5 mph - N/A   Mostly Cloudy
8:54 AM 59.9 °F 59.9 °F 100% 30.04 in 10.0 mi WSW 4.6 mph - N/A   Overcast
9:14 AM 60.4 °F 60.8 °F 100% 30.05 in 10.0 mi SW 4.6 mph - N/A   Overcast
9:33 AM - - N/A% 30.05 in 10.0 mi SW 3.5 mph - N/A   Overcast
9:54 AM 61.7 °F 61.9 °F 100% 30.05 in 10.0 mi Calm Calm - N/A   Overcast
10:14 AM 63.0 °F 62.8 °F 99% 30.04 in 10.0 mi Calm Calm - N/A   Mostly Cloudy
10:33 AM 63.5 °F 63.5 °F 100% 30.04 in 10.0 mi SSW 4.6 mph - N/A Rain Light Rain
10:54 AM 65.5 °F 64.8 °F 98% 30.04 in 10.0 mi SSW 4.6 mph - N/A   Scattered Clouds
11:14 AM 65.3 °F 64.8 °F 98% 30.03 in 10.0 mi SSW 3.5 mph - N/A Rain Light Rain
11:33 AM 66.6 °F 63.7 °F 90% 30.03 in 10.0 mi SSW 3.5 mph - N/A   Overcast
11:54 AM 67.6 °F 62.1 °F 82% 30.03 in 10.0 mi SSW 3.5 mph - N/A   Overcast
12:14 PM 69.6 °F 62.8 °F 79% 30.03 in 10.0 mi SSW 6.9 mph - N/A   Mostly Cloudy
12:33 PM 70.0 °F 62.4 °F 77% 30.03 in 10.0 mi SW 4.6 mph - N/A   Mostly Cloudy
12:54 PM 71.8 °F 63.0 °F 74% 30.02 in 10.0 mi SW 9.2 mph - N/A   Scattered Clouds
1:14 PM 73.4 °F 63.1 °F 70% 30.01 in 10.0 mi SW 10.4 mph - N/A   Clear
1:33 PM 74.1 °F 62.8 °F 68% 30.01 in 10.0 mi SW 9.2 mph 16.1 mph N/A   Scattered Clouds
1:54 PM 74.5 °F 63.5 °F 68% 30.00 in 10.0 mi SW 9.2 mph - N/A   Clear
2:14 PM 75.6 °F 63.3 °F 66% 30.00 in 10.0 mi SW 9.2 mph 16.1 mph N/A   Scattered Clouds
2:33 PM 75.9 °F 64.2 °F 67% 29.99 in 10.0 mi SW 5.8 mph - N/A   Scattered Clouds
2:54 PM 77.0 °F 64.6 °F 65% 29.99 in 10.0 mi South 6.9 mph - N/A   Scattered Clouds
3:14 PM 78.3 °F 63.7 °F 61% 29.97 in 10.0 mi SSW 8.1 mph - N/A   Scattered Clouds
3:33 PM 75.9 °F 62.6 °F 63% 29.97 in 10.0 mi South 8.1 mph - N/A   Mostly Cloudy
3:54 PM 73.9 °F 64.8 °F 73% 29.98 in 7.0 mi SW 4.6 mph - 0.01 in   Overcast
4:14 PM 74.1 °F 66.7 °F 78% 29.97 in 10.0 mi Calm Calm - 0.01 in   Mostly Cloudy
4:33 PM 74.5 °F 66.9 °F 77% 29.97 in 10.0 mi South 3.5 mph - 0.01 in   Scattered Clouds
4:54 PM 75.4 °F 67.3 °F 76% 29.95 in 10.0 mi Calm Calm - 0.01 in   Scattered Clouds
5:14 PM 77.7 °F 65.3 °F 65% 29.95 in 10.0 mi South 6.9 mph - N/A   Scattered Clouds
5:33 PM 79.3 °F 64.2 °F 60% 29.94 in 10.0 mi SSW 3.5 mph - N/A   Scattered Clouds
5:54 PM 79.2 °F 61.9 °F 55% 29.95 in 10.0 mi SSW 8.1 mph - N/A   Mostly Cloudy
6:14 PM 79.0 °F 60.3 °F 53% 29.95 in 10.0 mi SSW 9.2 mph 19.6 mph N/A   Scattered Clouds
6:33 PM 78.3 °F 60.3 °F 54% 29.95 in 10.0 mi SW 8.1 mph 17.3 mph N/A   Mostly Cloudy
6:54 PM 77.9 °F 60.6 °F 55% 29.94 in 10.0 mi SSW 6.9 mph - N/A   Overcast
7:14 PM 77.7 °F 60.8 °F 56% 29.93 in 10.0 mi South 8.1 mph - N/A   Overcast
7:33 PM 77.0 °F 60.4 °F 56% 29.94 in 10.0 mi SW 5.8 mph - N/A   Mostly Cloudy
7:54 PM 77.0 °F 60.3 °F 56% 29.94 in 10.0 mi SW 6.9 mph - N/A   Scattered Clouds
8:14 PM 76.1 °F 60.4 °F 58% 29.95 in 10.0 mi SSW 6.9 mph - N/A   Mostly Cloudy
8:33 PM 76.1 °F 60.8 °F 59% 29.95 in 10.0 mi SW 4.6 mph - N/A   Overcast
8:54 PM 75.2 °F 60.8 °F 61% 29.95 in 10.0 mi SW 4.6 mph - N/A   Overcast
9:14 PM 75.2 °F 60.8 °F 61% 29.95 in 10.0 mi SSW 4.6 mph - N/A   Mostly Cloudy
9:33 PM 75.2 °F 59.9 °F 59% 29.96 in 10.0 mi SW 4.6 mph - N/A   Overcast
9:54 PM 74.1 °F 59.7 °F 61% 29.96 in 10.0 mi SW 3.5 mph - N/A   Mostly Cloudy
10:14 PM 73.9 °F 58.5 °F 58% 29.97 in 10.0 mi SW 4.6 mph - N/A   Scattered Clouds
10:33 PM 74.3 °F 57.9 °F 57% 29.97 in 10.0 mi SW 6.9 mph - N/A   Mostly Cloudy
10:54 PM 74.3 °F 57.4 °F 55% 29.97 in 10.0 mi SW 8.1 mph - N/A   Scattered Clouds
11:14 PM 73.6 °F 57.4 °F 57% 29.98 in 10.0 mi SW 3.5 mph - N/A   Clear
11:33 PM 73.4 °F 57.4 °F 57% 29.98 in 10.0 mi SW 4.6 mph - N/A   Clear
11:54 PM 73.2 °F 57.2 °F 57% 29.97 in 10.0 mi SW 5.8 mph - N/A   Clear